Powrót do katalogu

STARLINK-30757

AktywnyŁącznośćVLEO
NORAD 58131·PAYLOAD·🇺🇸 United States

Wystrzelony Oct 22, 2023 z Cape Canaveral Space Force Station

Loading…

Następne Przeloty (najbliższe 24 godziny)

TLE

ŚwieżeSource: CelesTrak SupGP

Epoka: Sep 14, 2026, 21:21 UTC

1 58131C 23162P   26257.89006944 -.00053333  00000+0 -19318-2 0  2573
2 58131  42.9989 140.6590 0001318 266.7426  30.8185 15.27604195    18

Śledź STARLINK-30757 w czasie rzeczywistym z AllMySat

Download on the App Store